Weather History for Lawrence, MA

Change the Weather History Date:

Monday, April 8, 2013

  Actual Average Record
Temperature  
Mean Temperature 54 °F -  
Max Temperature 64 °F 52 °F 78 °F (1991)
Min Temperature 44 °F 33 °F 17 °F (1982)
Degree Days  
Heating Degree Days 11    
Growing Degree Days 4 (Base 50)    
Moisture  
Dew Point 36 °F    
Average Humidity 56    
Maximum Humidity 85    
Minimum Humidity 25    
Precipitation  
Precipitation 0.00 in - - ()
Sea Level Pressure  
Sea Level Pressure 30.04 in    
Wind  
Wind Speed 7 mph (WSW)    
Max Wind Speed 14 mph    
Max Gust Speed 17 mph    
Visibility 10 miles    
Events      
Averages and records for this station are not official NWS values.
T = Trace of Precipitation, MM = Missing Value Source: NWS Daily Summary

Daily Weather History Graph

Daily Weather History Graph

Search for Another Location

Airport:

Trip Planner

Search our weather history database for the weather conditions in past years. The results will help you decide how hot, cold, wet, or windy it might be!

Date:

Astronomy

Apr. 08, 2013 Rise Set
Actual Time 6:14 AM EDT 7:18 PM EDT
Civil Twilight 5:45 AM EDT 7:47 PM EDT
Nautical Twilight 5:10 AM EDT 8:22 PM EDT
Astronomical Twilight 4:34 AM EDT 8:58 PM EDT
Moon 5:04 AM EDT (4/8) 5:48 PM EDT (4/8)
Length of Visible Light 14h 02m
Length of Day
13h 04m
Waning Crescent, 3% of the Moon is Illuminated
Apr 8
Waning Crescent
Apr 10
New
Apr 18
First Quarter
Apr 25
Full
May 2
Last Quarter

Hourly Weather History & Observations

Time (EDT) Temp. Windchill Dew Point Humidity Pressure Visibility Wind Dir Wind Speed Gust Speed Precip Events Conditions
12:54 AM 46.9 °F - 37.9 °F 71% 30.00 in 10.0 mi SSW 8.1 mph - N/A   Clear
1:54 AM 46.0 °F 43.1 °F 39.0 °F 76% 29.99 in 10.0 mi SW 5.8 mph - N/A   Clear
2:54 AM 45.0 °F 41.8 °F 39.0 °F 80% 29.97 in 10.0 mi SSW 5.8 mph - N/A   Clear
3:54 AM 44.1 °F 40.1 °F 39.0 °F 82% 29.96 in 10.0 mi SW 6.9 mph - N/A   Clear
4:54 AM 45.0 °F 40.1 °F 39.9 °F 82% 29.98 in 10.0 mi SW 9.2 mph - N/A   Clear
5:54 AM 44.1 °F 40.8 °F 39.9 °F 85% 29.98 in 10.0 mi SSW 5.8 mph - N/A   Clear
6:54 AM 44.1 °F 40.1 °F 39.9 °F 85% 30.00 in 10.0 mi SSW 6.9 mph - N/A   Clear
7:54 AM 48.0 °F - 41.0 °F 77% 30.02 in 10.0 mi WSW 6.9 mph - N/A   Clear
8:54 AM 50.0 °F - 39.0 °F 66% 30.02 in 10.0 mi West 8.1 mph - N/A   Clear
9:54 AM 55.0 °F - 37.0 °F 51% 30.03 in 10.0 mi WNW 10.4 mph - N/A   Clear
10:54 AM 55.0 °F - 34.0 °F 45% 30.05 in 10.0 mi NW 13.8 mph 17.3 mph N/A   Clear
11:54 AM 57.9 °F - 34.0 °F 41% 30.07 in 10.0 mi NW 9.2 mph - N/A   Clear
12:54 PM 59.0 °F - 34.0 °F 39% 30.06 in 10.0 mi Variable 4.6 mph - N/A   Clear
1:54 PM 61.0 °F - 33.1 °F 35% 30.06 in 10.0 mi NW 5.8 mph - N/A   Clear
2:54 PM 62.1 °F - 30.0 °F 30% 30.05 in 10.0 mi North 5.8 mph - N/A   Clear
3:54 PM 64.9 °F - 30.0 °F 27% 30.04 in 10.0 mi North 6.9 mph - N/A   Clear
4:54 PM 64.0 °F - 28.9 °F 27% 30.04 in 10.0 mi Variable 3.5 mph - N/A   Clear
5:54 PM 64.0 °F - 27.0 °F 25% 30.04 in 10.0 mi Calm Calm - N/A   Clear
6:54 PM 55.9 °F - 34.0 °F 44% 30.08 in 10.0 mi SE 8.1 mph - N/A   Clear
7:54 PM 52.0 °F - 34.0 °F 50% 30.10 in 10.0 mi Calm Calm - N/A   Clear
8:54 PM 51.1 °F - 35.1 °F 54% 30.11 in 10.0 mi Variable 3.5 mph - N/A   Clear
9:54 PM 50.0 °F - 36.0 °F 59% 30.12 in 10.0 mi ESE 5.8 mph - N/A   Clear
10:54 PM 50.0 °F - 37.0 °F 61% 30.11 in 10.0 mi Variable 5.8 mph - N/A   Clear
11:54 PM 50.0 °F - 37.0 °F 61% 30.10 in 10.0 mi Variable 3.5 mph - N/A   Mostly Cloudy